Terminal Aerodrome Forecast
Issued by NWS

Current Version | Previous Version | Text Only | Print | Product List | Glossary On
Versions: 1 2 3 4 5 6 7 8 9 10 11 12 13 14 15 16 17 18 19 20 21 22 23 24 25 26 27 28 29 30 31
000
FTPQ31 PGUM 301100
TAFPQ
TAF

PGSN 301126Z 3012/3112 12015G25KT P6SM VCSH SCT018 SCT030 BKN080
      TEMPO 3012/3015 6SM -SHRA SCT015 BKN025
     FM301600 16011G22KT P6SM VCSH SCT015 SCT035 BKN100=

USA.gov is the U.S. government's official web portal to all federal, state and local government web resources and services.